Location: Bushey
(51.6333°N, 0.3667°W)
Time: 00:42:31
(UTC+00:00)

Resurs 1-3 - Pass Details

Date: 03 March 2021
Orbit: 629 x 633 km, 97.9° (Epoch: 11 April)

Event Time Altitude Azimuth Distance (km) Brightness Sun altitude
Exits shadow 19:38:47 38° 115° (ESE) 974 4.0 -18.3°
Maximum altitude 19:40:00 49° 69° (ENE) 818 3.8 -18.5°
Drops below altitude 10° 19:44:16 10° 355° (N) 2,030 6.4 -19.1°
Sets 19:46:31 0° 350° (N) 2,943 7.4 -19.4°
